Regional Weather Roundup
Issued by NWS

Home | Current Version | Previous Version | Graphics & Text | Print | Product List | Glossary On
Versions: 1 2 3 4 5 6 7 8 9 10 11 12 13 14 15 16 17 18 19 20 21 22 23 24 25 26 27 28 29 30 31 32 33 34 35 36 37 38 39 40 41 42 43 44 45 46 47 48 49 50
000
ASUS43 KIND 211459
RWRIN

WEATHER ROUNDUP FOR INDIANA
NATIONAL WEATHER SERVICE INDIANAPOLIS IN
1100 AM EDT MON APR 21 2014

NOTE: "FAIR" INDICATES FEW OR NO CLOUDS BELOW 12,000 FEET WITH NO
SIGNIFICANT WEATHER AND/OR OBSTRUCTIONS TO VISIBILITY.

* - STATION DOES NOT REPORT WEATHER SUCH AS PRECIPITATION OR FOG.

+ - STATION NOT QUALITY CONTROLLED BY THE NATIONAL WEATHER SERVICE.
    USE DATA WITH CAUTION...ESPECIALLY DEWPOINT AND RELATIVE
    HUMIDITY OBSERVATIONS.

INZ001>003-010>013-019-020-211600-
NORTHWEST INDIANA

CITY           SKY/WX    TMP DP  RH WIND       PRES   REMARKS
GARY /AIRPORT/ CLOUDY    68  41  37 S9        29.95S
RENSSELAER +   CLOUDY    70  41  35 S14       29.96F
VALPARAISO     CLOUDY    68  42  38 SW16      29.96F

$$

LMZ046-743>745-211600-
SOUTHERN LAKE MICHIGAN

STATION/POSITION TIME  TEMP WIND        PRES
                       AIR  DIR/SP/G
                 (UTC) (F)  (DEG/KT/KT) (MB)
MICHIGAN CITY    1400   64  170/ 11/ 14   N/A

$$

INZ004-005-014>016-021>024-211600-
NORTH CENTRAL INDIANA

CITY           SKY/WX    TMP DP  RH WIND       PRES   REMARKS
ELKHART        SUNNY     66  39  37 S6        29.97F
GOSHEN         PTSUNNY   70  42  36 SW14      29.97F
PERU/GRISSOM   CLOUDY    71  45  40 SW13      29.99F
SOUTH BEND     CLOUDY    69  43  38 SW8       29.97F

$$

INZ006>009-017-018-025>027-211600-
NORTHEAST INDIANA

CITY           SKY/WX    TMP DP  RH WIND       PRES   REMARKS
ANGOLA *+      SUNNY     70  45  40 SW8       29.97F
FORT WAYNE     PTSUNNY   69  42  37 SW12      30.00F

$$

INZ028-029-035-036-043>045-051>053-211600-
WEST CENTRAL INDIANA

CITY           SKY/WX    TMP DP  RH WIND       PRES   REMARKS
GREENCASTLE +  CLOUDY    68  45  42 SW7       30.02F
LAFAYETTE      CLOUDY    68  44  42 SW9       29.98F
TERRE HAUTE    PTSUNNY   71  47  42 SW7       30.01F

$$

INZ030>032-037>040-046>048-054>057-064-065-211600-
CENTRAL INDIANA

CITY           SKY/WX    TMP DP  RH WIND       PRES   REMARKS
ANDERSON       SUNNY     68  39  34 S12       30.03F
INDIANAPOLIS   PTSUNNY   68  44  42 SW8       30.02F
-EAGLE CREEK   PTSUNNY   68  42  38 SW9       30.01F
KOKOMO *+      PTSUNNY   68  45  42 S10       29.99F
MT COMFORT *+  PTSUNNY   72  45  37 SW9       30.02F
SHELBYVILLE    PTSUNNY   71  44  37 SW9       30.03F

$$

INZ033-034-041-042-049-050-058-059-211600-
EAST CENTRAL INDIANA

CITY           SKY/WX    TMP DP  RH WIND       PRES   REMARKS
MUNCIE         PTSUNNY   70  40  33 SW10      30.01F

$$

INZ060-061-067>069-081>083-085>088-211600-
SOUTHWEST INDIANA

CITY           SKY/WX    TMP DP  RH WIND       PRES   REMARKS
EVANSVILLE     MOSUNNY   71  46  40 SW8       30.04F
HUNTINGBURG *+ CLOUDY    68  48  49 SW10      30.05F

$$

INZ062-063-066-070>080-084-089>092-211600-
SOUTH CENTRAL AND SOUTHEAST INDIANA

CITY           SKY/WX    TMP DP  RH WIND       PRES   REMARKS
BLOOMINGTON    CLOUDY    71  41  33 W7        30.03F

$$




USA.gov is the U.S. government's official web portal to all federal, state and local government web resources and services.